Abilene Dyess, TX

4:04 PM CST on November 16, 2019 (GMT -0600)
Dyess Air Force Base

Weather History for KDYS - July, 2019

Change the Weather History Date:

Friday, July 12, 2019

  Actual Average Record
Temperature  
Mean Temperature 82 °F -  
Max Temperature 93 °F 94 °F 111 °F (1998)
Min Temperature 72 °F 72 °F 64 °F (1998)
Cooling Degree Days 16    
Growing Degree Days 32 (Base 50)    
Moisture  
Dew Point 62 °F    
Average Humidity 53    
Maximum Humidity 79    
Minimum Humidity 30    
Precipitation  
Precipitation 0.00 in - - ()
Sea Level Pressure  
Sea Level Pressure 29.82 in    
Wind  
Wind Speed 4 mph (ENE)    
Max Wind Speed 13 mph    
Max Gust Speed 17 mph    
Visibility 10 miles    
Events      
Averages and records for this station are not official NWS values.
T = Trace of Precipitation, MM = Missing Value Source: NWS Daily Summary

Daily Weather History Graph

Daily Weather History Graph

Search for Another Location

Airport or City:

Astronomy

Jul. 12, 2019 Rise Set
Actual Time 6:41 AM CDT 8:48 PM CDT
Civil Twilight 6:13 AM CDT 9:16 PM CDT
Nautical Twilight 5:39 AM CDT 9:50 PM CDT
Astronomical Twilight 5:02 AM CDT 10:27 PM CDT
Moon 5:14 PM CDT (7/12) 3:18 AM CDT (7/12)
Length of Visible Light 15h 03m
Length of Day
14h 07m
Waxing Gibbous, 83% of the Moon is Illuminated
Jul 12
Waxing Gibbous
Jul 16
Full
Jul 24
Last Quarter
Jul 31
New
Aug 7
First Quarter

Hourly Weather History & Observations

Time (CDT) Temp. Heat Index Dew Point Humidity Pressure Visibility Wind Dir Wind Speed Gust Speed Precip Events Conditions
12:56 AM 78.1 °F - 65.3 °F 65% 29.86 in 10.0 mi Calm Calm - N/A   Scattered Clouds
1:56 AM 77.4 °F - 65.1 °F 66% 29.86 in 10.0 mi Calm Calm - N/A   Clear
2:56 AM 76.6 °F - 65.3 °F 68% 29.84 in 10.0 mi Calm Calm - N/A   Clear
3:56 AM 74.5 °F - 65.7 °F 74% 29.84 in 10.0 mi Calm Calm - N/A   Clear
4:56 AM 73.6 °F - 65.8 °F 77% 29.83 in 10.0 mi SW 3.5 mph - N/A   Clear
5:56 AM 72.0 °F - 65.1 °F 79% 29.83 in 10.0 mi Calm Calm - N/A   Clear
7:56 AM 76.8 °F - 66.2 °F 70% 29.85 in 10.0 mi Calm Calm - N/A   Clear
8:56 AM 79.7 °F - 64.9 °F 61% 29.86 in 10.0 mi East 6.9 mph - N/A   Clear
10:56 AM 84.6 °F 86.8 °F 66.0 °F 54% 29.87 in 10.0 mi SE 6.9 mph - N/A   Scattered Clouds
11:56 AM 85.8 °F 87.6 °F 65.5 °F 50% 29.86 in 10.0 mi ESE 4.6 mph - N/A   Partly Cloudy
12:56 PM 87.6 °F 90.1 °F 66.0 °F 49% 29.86 in 10.0 mi NE 9.2 mph - N/A   Partly Cloudy
1:56 PM 89.1 °F 91.0 °F 64.9 °F 45% 29.83 in 10.0 mi East 10.4 mph - N/A   Mostly Cloudy
2:56 PM 91.0 °F 92.2 °F 63.3 °F 40% 29.81 in 10.0 mi NNE 9.2 mph 17.3 mph N/A   Mostly Cloudy
3:56 PM 91.8 °F 91.2 °F 59.4 °F 34% 29.80 in 10.0 mi ENE 12.7 mph - N/A   Partly Cloudy
5:56 PM 91.8 °F 90.0 °F 55.9 °F 30% 29.77 in 10.0 mi NNE 8.1 mph - N/A   Clear
6:56 PM 90.7 °F 89.8 °F 58.5 °F 34% 29.77 in 10.0 mi NE 12.7 mph - N/A   Partly Cloudy
7:56 PM 88.5 °F 86.5 °F 54.0 °F 31% 29.77 in 10.0 mi NE 10.4 mph - N/A   Clear
8:56 PM 83.5 °F 82.5 °F 55.2 °F 38% 29.77 in 10.0 mi NE 6.9 mph - N/A   Clear
9:56 PM 79.9 °F - 54.7 °F 42% 29.79 in 10.0 mi East 3.5 mph - N/A   Clear
10:56 PM 77.5 °F - 56.8 °F 49% 29.80 in 10.0 mi East 5.8 mph - N/A   Clear
11:56 PM 76.5 °F - 58.1 °F 53% 29.79 in 10.0 mi ESE 3.5 mph - N/A   Clear